+ View the NASA Portal
+ Center for Near-Earth Object Studies
IMPORTANT:
The SSD Announcement email list is now available. Major changes are coming in the near future, including possible hostname and/or URL changes. To be notified of such changes, subscribe to this email list.
Please visit
this page
for more details.
Don't show this message again
JPL Small-Body Database Browser
Search:
[
help
]
452250 (2015 TB101)
Classification:
Main-belt Asteroid
SPK-ID:
2452250
[
Ephemeris
|
Orbit Diagram
|
Orbital Elements
|
Mission Design
|
Physical Parameters
|
Discovery Circumstances
]
[ show orbit diagram ]
Orbital Elements at Epoch 2458600.5 (2019-Apr-27.0) TDB
Reference:
JPL 13
(heliocentric ecliptic J2000)
Element
Value
Uncertainty (1-sigma)
Units
e
.2543031863241724
6.8876e-08
a
2.57510483864657
3.355e-08
au
q
1.920247473059954
1.8123e-07
au
i
5.843381542655171
4.0179e-06
deg
node
121.6930424007635
9.4537e-05
deg
peri
213.9531984744984
9.7009e-05
deg
M
350.3728143155374
2.0303e-05
deg
t
p
2458640.863391172945
(2019-Jun-06.36339117)
8.4752e-05
TDB
period
1509.352919795829
4.13
2.9497e-05
8.076e-08
d
yr
n
.2385128059040674
4.6612e-09
deg/d
Q
3.229962204233187
4.2081e-08
au
Orbit Determination Parameters
# obs. used (total)
166
data-arc span
3488 days (9.55 yr)
first obs. used
2010-05-11
last obs. used
2019-11-28
planetary ephem.
DE431
SB-pert. ephem.
SB431-N16
condition code
0
norm. resid. RMS
.54772
source
ORB
producer
Otto Matic
solution date
2019-Dec-05 02:32:18
Additional Information
Earth MOID
= .912648 au
Jupiter MOID
= 2.15741 au
T_jup
= 3.374
[ show covariance matrix ]
[
Ephemeris
|
Orbit Diagram
|
Orbital Elements
|
Mission Design
|
Physical Parameters
|
Discovery Circumstances
]
Physical Parameter Table
Parameter
Symbol
Value
Units
Sigma
Reference
Notes
absolute magnitude
H
17.3
n/a
MPO450473
452250 (2015 TB101)
Discovered 2010-May-11 by Mt. Lemmon Survey at Mount Lemmon
Reference:
Last Updated:
2015-11-30
Alternate Designations
2015 TB101
= 2010 JP119
[
Ephemeris
|
Orbit Diagram
|
Orbital Elements
|
Mission Design
|
Physical Parameters
|
Discovery Circumstances
]
2019-Dec-08 08:58 UT
(server date/time)
Site Manager:
Ryan S. Park
Webmaster
:
Alan B. Chamberlin